Theta_e
324 326 328 328 328 328 327 325 321 322 320 319 319 319 318 317 314 311 309 308 306 305
325 325 327 327 326 326 325 322 320 320 319 317 317 317 315 314 313 311 309 308 307 306
325 326 327 327 326 325 323 321 320 319 318 316 315 314 313 312 312 311 308 308 306 303
324 325 326 326 327 324 321 320 320 319 318 316 313 311 311 311 312 312 311 309 307 302
321 322 324 324 324 324 322 321 321 319 316 314 312 311 312 311 312 311 309 308 307 302
320 320 318 317 317 317 319 318 316 316 314 313 312 311 310 310 310 310 309 309 307 304
320 317 317 317 317 317 317 316 315 316 315 313 312 310 310 309 308 308 307 306 304 301
319 318 317 317 316 315 316 315 315 313 313 312 310 310 308 308 306 305 302 301 300 297
315 312 313 313 314 313 312 312 312 311 310 310 309 300 301 305 304 302 300 298 295 294
311 312 311 311 312 311 312 311 311 310 310 308 306 296 297 299 305 303 298 295 293 292
307 307 307 308 308 307 309 307 306 306 306 304 303 296 297 295 302 299 295 294 292 291
305 305 305 305 305 306 306 306 306 305 305 305 301 294 295 297 300 297 295 293 292 291
304 304 302 303 303 303 305 304 306 305 305 303 304 297 294 297 299 297 294 292 291 290
301 301 302 302 302 303 302 302 302 303 303 304 301 297 294 294 298 298 293 293 290 289
Wind_Speed
13 11 10 11 8 9 9 7 7 7 7 7 8 8 8 7 7 7 6 9 5 4
14 13 12 12 9 8 6 7 9 9 9 7 7 7 7 5 5 6 5 5 6 3
17 14 12 11 13 12 8 9 11 10 10 9 8 8 8 5 5 6 3 3 5 4
11 9 11 12 12 13 12 11 13 13 11 10 8 7 7 7 7 7 5 4 5 5
6 5 9 11 12 11 13 12 13 11 10 10 9 8 8 8 6 6 6 5 7 7
8 8 10 9 6 3 4 6 6 8 9 9 9 9 7 8 8 7 7 9 9 8
12 11 10 11 7 5 1 4 5 7 8 9 9 9 9 7 8 6 6 6 5 5
10 10 11 11 11 10 6 7 6 7 7 7 7 5 9 8 8 7 6 5 5 5
11 8 7 7 10 11 12 10 10 10 10 8 5 10 9 8 6 7 8 7 5 4
6 6 5 6 8 7 7 8 8 9 10 12 8 12 11 10 6 6 6 6 7 5
7 6 6 6 6 6 5 7 8 8 8 8 8 14 12 12 7 6 6 7 7 8
6 6 6 7 6 6 5 5 5 6 8 7 7 13 14 10 6 6 5 5 6 7
9 8 6 5 5 3 4 4 5 5 4 7 8 12 12 10 5 5 4 3 4 8
10 8 7 5 4 3 4 4 4 5 5 5 6 7 11 9 5 5 5 5 4 4
Wind_Direction
177 177 178 175 183 187 188 179 163 172 173 169 169 165 167 179 183 177 183 184 178 163
181 178 175 171 155 180 178 165 168 174 173 171 169 165 157 160 163 165 179 183 167 145
186 178 171 168 171 171 175 170 173 177 177 174 174 161 156 156 155 164 148 144 157 147
188 185 168 177 182 178 164 181 186 185 181 177 172 158 156 160 154 159 159 155 175 177
175 187 178 182 187 182 187 183 191 185 174 168 162 162 166 152 149 150 164 174 183 174
126 123 96 72 38 49 164 196 174 171 172 171 162 154 154 143 149 155 172 185 198 180
150 136 129 108 93 68 24 184 197 200 183 177 169 156 145 146 155 157 176 191 180 162
158 151 149 145 143 135 191 182 193 171 162 149 151 148 153 166 149 161 166 168 177 175
148 135 137 150 158 159 170 163 167 180 147 160 151 156 158 178 156 182 169 162 137 125
110 130 136 133 135 154 160 168 187 159 174 190 131 155 164 154 182 188 166 150 146 146
79 93 96 109 127 105 151 153 151 170 163 143 137 162 149 162 189 179 162 160 167 150
63 65 79 93 93 93 122 122 129 148 155 161 148 149 149 174 175 167 172 168 158 150
54 61 59 70 88 85 119 117 141 142 139 155 157 163 155 193 150 162 144 147 155 161
53 54 48 56 60 86 95 110 115 127 138 169 142 159 163 185 159 179 162 162 176 180